DW0307 Weather Reports


time (UTC)temp
C
wind
direction
speed
KPH
gust
KPH
rain 1hr
cm
rain 24hr
cm
rain mn
cm
humidity
%
barometer
mb
20260831233049 15 290 1.6 4.8 0.00 0.00 0.00 85 1017.6
20260831231558 15 294 3.2 6.4 0.00 0.00 0.00 85 1017.4
20260831230111 15 0 0.0 4.8 0.00 0.00 0.00 85 1017.4
20260831224553 15 300 3.2 6.4 0.00 0.00 0.00 84 1017.7
20260831223106 15 5 3.2 6.4 0.00 0.00 0.00 84 1017.6
20260831221556 15 0 0.0 4.8 0.00 0.00 0.00 83 1017.6
20260831220050 16 334 3.2 6.4 0.00 0.00 0.00 81 1017.6
20260831214608 17 334 3.2 6.4 0.00 0.00 0.00 80 1017.4
20260831213051 17 98 1.6 6.4 0.00 0.00 0.00 79 1017.5
20260831211552 17 33 1.6 6.4 0.00 0.00 0.00 79 1017.6
20260831210047 17 30 1.6 9.7 0.00 0.00 0.00 79 1017.6
20260831204554 18 242 1.6 4.8 0.00 0.00 0.00 78 1017.4
20260831203055 18 196 1.6 8.0 0.00 0.00 0.00 79 1017.3
20260831201551 18 272 1.6 9.7 0.00 0.00 0.00 77 1017.2
20260831200104 19 320 3.2 6.4 0.00 0.00 0.00 73 1017.0
20260831194624 20 49 4.8 6.4 0.00 0.00 0.00 72 1016.7
20260831193050 20 61 3.2 9.7 0.00 0.00 0.00 71 1016.7
20260831191556 20 48 3.2 8.0 0.00 0.00 0.00 71 1016.7
20260831184550 20 81 3.2 6.4 0.00 0.00 0.00 69 1016.6
20260831183108 20 87 1.6 9.7 0.00 0.00 0.00 70 1016.5
20260831181557 20 295 1.6 4.8 0.00 0.00 0.00 70 1016.3
20260831180109 20 294 3.2 8.0 0.00 0.00 0.00 68 1016.1
20260831174601 21 280 6.4 9.7 0.00 0.00 0.00 66 1015.9
20260831173058 22 259 4.8 6.4 0.00 0.00 0.00 64 1015.8
20260831171553 23 254 1.6 4.8 0.00 0.00 0.00 59 1015.9
20260831170104 23 254 4.8 8.0 0.00 0.00 0.00 55 1015.9
20260831164550 25 258 4.8 12.9 0.00 0.00 0.00 52 1015.8
20260831163051 25 236 4.8 14.5 0.00 0.00 0.00 48 1015.9
20260831161603 26 246 11.3 20.9 0.00 0.00 0.00 46 1015.8
20260831160058 26 250 14.5 27.4 0.00 0.00 0.00 44 1015.8
20260831154618 27 242 17.7 29.0 0.00 0.00 0.00 42 1015.8
20260831153052 26 218 12.9 24.1 0.00 0.00 0.00 45 1015.9
20260831151615 27 232 11.3 20.9 0.00 0.00 0.00 41 1016.0
20260831150055 28 211 19.3 29.0 0.00 0.00 0.00 39 1015.9
20260831144552 27 219 22.5 32.2 0.00 0.00 0.00 42 1016.1
20260831143050 27 228 9.7 17.7 0.00 0.00 0.00 42 1016.0
20260831141548 27 266 11.3 22.5 0.00 0.00 0.00 43 1016.2
20260831140058 27 229 14.5 25.7 0.00 0.00 0.00 43 1016.3
20260831134554 27 232 9.7 27.4 0.00 0.00 0.00 41 1016.3
20260831133052 28 219 22.5 32.2 0.00 0.00 0.00 38 1016.4
20260831131608 28 235 16.1 32.2 0.00 0.00 0.00 41 1016.3
20260831130101 28 232 20.9 35.4 0.00 0.00 0.00 38 1016.4
20260831124601 29 220 22.5 33.8 0.00 0.00 0.00 37 1016.5
20260831123103 28 236 17.7 33.8 0.00 0.00 0.00 39 1016.6
20260831121556 29 236 25.7 38.6 0.00 0.00 0.00 38 1016.5
20260831120056 28 234 20.9 32.2 0.00 0.00 0.00 40 1016.7
20260831114551 27 196 11.3 20.9 0.00 0.00 0.00 40 1016.8
20260831113103 30 211 19.3 32.2 0.00 0.00 0.00 38 1016.9
20260831111555 27 267 16.1 27.4 0.00 0.00 0.00 41 1016.9
20260831110107 28 246 24.1 35.4 0.00 0.00 0.00 40 1017.1
20260831104611 28 242 14.5 33.8 0.00 0.00 0.00 41 1017.2
20260831103054 28 226 14.5 32.2 0.00 0.00 0.00 40 1017.2
20260831101552 27 227 17.7 29.0 0.00 0.00 0.00 43 1017.3
20260831100108 28 251 17.7 30.6 0.00 0.00 0.00 43 1017.3
20260831094550 26 253 17.7 27.4 0.00 0.00 0.00 45 1017.4
20260831093106 28 256 8.0 19.3 0.00 0.00 0.00 47 1017.4
20260831091554 27 204 6.4 17.7 0.00 0.00 0.00 49 1017.4
20260831090051 27 221 4.8 14.5 0.00 0.00 0.00 48 1017.7
20260831084601 27 190 6.4 16.1 0.00 0.00 0.00 48 1017.8
20260831083054 26 207 6.4 14.5 0.00 0.00 0.00 50 1018.1
20260831081553 25 198 3.2 12.9 0.00 0.00 0.00 54 1018.2
20260831080107 25 190 6.4 12.9 0.00 0.00 0.00 56 1018.2
20260831074557 23 185 4.8 8.0 0.00 0.00 0.00 59 1018.3
20260831073103 22 196 3.2 8.0 0.00 0.00 0.00 63 1018.3
20260831071549 21 188 3.2 8.0 0.00 0.00 0.00 65 1018.4
20260831070114 20 132 1.6 6.4 0.00 0.00 0.00 69 1018.5
20260831064554 19 123 3.2 6.4 0.00 0.00 0.00 70 1018.7
20260831063054 18 75 1.6 4.8 0.00 0.00 0.00 70 1018.7
20260831061551 18 0 0.0 3.2 0.00 0.00 0.00 75 1018.9
20260831060103 16 0 0.0 0.0 0.00 0.00 0.00 83 1018.9
20260831054555 15 0 0.0 1.6 0.00 0.00 0.00 88 1019.0
20260831053101 12 0 0.0 0.0 0.00 0.00 0.00 89 1019.0
20260831051556 11 0 0.0 0.0 0.00 0.00 0.00 90 1018.9
20260831050056 10 0 0.0 1.6 0.00 0.00 0.00 89 1018.8
20260831044610 9 0 0.0 3.2 0.00 0.00 0.00 89 1018.8
20260831043058 8 0 0.0 3.2 0.00 0.00 0.00 89 1018.8
20260831041559 8 0 0.0 1.6 0.00 0.00 0.00 88 1018.8
20260831040052 8 292 0.0 3.2 0.00 0.00 0.00 88 1018.8
20260831034557 8 0 1.6 4.8 0.00 0.00 0.00 88 1018.8
20260831033049 8 290 3.2 6.4 0.00 0.00 0.00 88 1018.8
20260831031556 8 224 1.6 6.4 0.00 0.00 0.00 88 1018.9
20260831024548 9 0 0.0 0.0 0.00 0.00 0.00 87 1018.8
20260831023055 9 152 0.0 8.0 0.00 0.00 0.00 87 1018.9
20260831021553 10 0 0.0 8.0 0.00 0.00 0.00 88 1018.8
20260831020052 10 150 0.0 4.8 0.00 0.00 0.00 88 1018.8
20260831014602 10 150 3.2 6.4 0.00 0.00 0.00 87 1018.7
20260831013057 10 0 3.2 6.4 0.00 0.00 0.00 87 1018.8
20260831011615 10 302 0.0 4.8 0.00 0.00 0.00 87 1018.7
20260831010058 10 302 0.0 6.4 0.00 0.00 0.00 86 1018.8
20260831004606 10 311 3.2 6.4 0.00 0.00 0.00 86 1018.8
20260831003104 10 298 4.8 6.4 0.00 0.00 0.00 86 1018.9
20260831001606 10 295 4.8 6.4 0.00 0.00 0.00 85 1019.0
20260831000058 11 340 0.0 4.8 0.00 0.00 0.00 85 1019.0
20260830234555 11 0 0.0 3.2 0.00 0.00 0.00 85 1018.8